Lorentz, WV

4:24 AM EST on February 11, 2016 (GMT -0500)
Buckhannon

Weather History for KW22 - August, 2013

Change the Weather History Date:

Wednesday, August 14, 2013

  Actual Average (KEKN) Record (KEKN)
Temperature  
Mean Temperature 56 °F 70 °F  
Max Temperature 64 °F 81 °F 92 °F (1988)
Min Temperature 48 °F 58 °F 42 °F (1941)
Degree Days  
Heating Degree Days 9 0  
Month to date heating degree days 0  
Since 1 June heating degree days 67  
Since 1 July heating degree days 12  
Cooling Degree Days 0 5  
Month to date cooling degree days 70  
Year to date cooling degree days 351  
Since 1 June cooling degree days 328  
Growing Degree Days 6 (Base 50)    
Moisture  
Dew Point 51 °F    
Average Humidity 82    
Maximum Humidity 100    
Minimum Humidity 55    
Precipitation  
Precipitation 0.00 in 0.12 in 1.34 in (1918)
Month to date precipitation 1.85  
Year to date precipitation 30.82  
Snow  
Snow 0.00 in - - ()
Month to date snowfall  
Since 1 September snowfall  
Snow Depth -    
Sea Level Pressure  
Sea Level Pressure 30.12 in    
Wind  
Wind Speed 4 mph (NNW)    
Max Wind Speed 10 mph    
Max Gust Speed -    
Visibility 8 miles    
Events Fog    
T = Trace of Precipitation, MM = Missing Value Source: NWS Daily Summary

Daily Weather History Graph

Daily Weather History Graph

Search for Another Location

Airport or City:

Trip Planner

Search our weather history database for the weather conditions in past years. The results will help you decide how hot, cold, wet, or windy it might be!

Date:

Astronomy

Aug. 14, 2013 Rise Set
Actual Time 6:33 AM EDT 8:16 PM EDT
Civil Twilight 6:05 AM EDT 8:45 PM EDT
Nautical Twilight 5:30 AM EDT 9:19 PM EDT
Astronomical Twilight 4:53 AM EDT 9:56 PM EDT
Moon 2:26 PM EDT (8/14) No Moon Set
Length of Visible Light 14h 40m
Length of Day
13h 43m
First Quarter, 52% of the Moon is Illuminated
Aug 14
First Quarter
Aug 20
Full
Aug 28
Last Quarter
Sep 5
New
Sep 12
First Quarter

Hourly Weather History & Observations

Time (EDT) Temp. Dew Point Humidity Pressure Visibility Wind Dir Wind Speed Gust Speed Precip Events Conditions
12:15 AM 60.8 °F 55.4 °F 82% 30.01 in 10.0 mi North 10.4 mph - N/A   Mostly Cloudy
12:35 AM 60.8 °F 55.4 °F 82% 30.01 in 10.0 mi NNW 8.1 mph - N/A   Mostly Cloudy
12:55 AM 59.0 °F 53.6 °F 82% 30.02 in 10.0 mi NNW 5.8 mph - N/A   Mostly Cloudy
1:15 AM 57.2 °F 53.6 °F 88% 30.02 in 10.0 mi North 8.1 mph - N/A   Scattered Clouds
1:35 AM 57.2 °F 51.8 °F 82% 30.02 in 10.0 mi North 9.2 mph - N/A   Clear
1:55 AM 55.4 °F 51.8 °F 88% 30.03 in 10.0 mi North 4.6 mph - N/A   Clear
2:15 AM 55.4 °F 51.8 °F 88% 30.03 in 10.0 mi North 5.8 mph - N/A   Clear
2:35 AM 53.6 °F 51.8 °F 94% 30.03 in 10.0 mi North 4.6 mph - N/A   Clear
2:55 AM 53.6 °F 51.8 °F 94% 30.03 in 10.0 mi North 5.8 mph - N/A   Clear
3:15 AM 53.6 °F 51.8 °F 94% 30.03 in 10.0 mi North 4.6 mph - N/A   Clear
3:35 AM 51.8 °F 51.8 °F 100% 30.04 in 10.0 mi Calm Calm - N/A   Clear
3:55 AM 53.6 °F 51.8 °F 94% 30.04 in 10.0 mi Calm Calm - N/A   Clear
4:15 AM 51.8 °F 51.8 °F 100% 30.05 in 10.0 mi Calm Calm - N/A   Clear
4:35 AM 51.8 °F 51.8 °F 100% 30.05 in 10.0 mi Calm Calm - N/A   Clear
4:55 AM 51.8 °F 51.8 °F 100% 30.06 in 6.0 mi Calm Calm - N/A   Clear
5:15 AM 50.0 °F 50.0 °F 100% 30.06 in 2.5 mi Calm Calm - N/A   Clear
5:35 AM 50.0 °F 50.0 °F 100% 30.06 in 1.2 mi Calm Calm - N/A   Clear
5:55 AM 50.0 °F 50.0 °F 100% 30.06 in 4.0 mi Calm Calm - N/A   Clear
6:15 AM 50.0 °F 50.0 °F 100% 30.07 in 0.5 mi Calm Calm - N/A Fog Fog
6:35 AM 48.2 °F 48.2 °F 100% 30.08 in 0.2 mi Calm Calm - N/A Fog Fog
6:55 AM 48.2 °F 48.2 °F 100% 30.08 in 0.2 mi Calm Calm - N/A Fog Fog
7:15 AM 48.2 °F 48.2 °F 100% 30.09 in 0.2 mi Calm Calm - N/A Fog Fog
7:35 AM 48.2 °F 48.2 °F 100% 30.09 in 0.2 mi Calm Calm - N/A Fog Fog
7:55 AM 48.2 °F 48.2 °F 100% 30.10 in 0.2 mi Calm Calm - N/A Fog Fog
8:15 AM 51.8 °F 51.8 °F 100% 30.10 in 0.2 mi Calm Calm - N/A Fog Fog
8:35 AM 53.6 °F 53.6 °F 100% 30.11 in 7.0 mi Calm Calm - N/A   Scattered Clouds
8:55 AM 55.4 °F 55.4 °F 100% 30.12 in 10.0 mi Calm Calm - N/A   Clear
9:15 AM 57.2 °F 51.8 °F 82% 30.12 in 10.0 mi NNW 6.9 mph - N/A   Clear
9:35 AM 59.0 °F 48.2 °F 67% 30.12 in 10.0 mi NW 4.6 mph - N/A   Clear
9:55 AM 59.0 °F 48.2 °F 67% 30.13 in 10.0 mi NW 6.9 mph - N/A   Partly Cloudy
10:15 AM 59.0 °F 50.0 °F 72% 30.13 in 10.0 mi NNW 4.6 mph - N/A   Scattered Clouds
10:35 AM 57.2 °F 48.2 °F 72% 30.14 in 10.0 mi NW 6.9 mph - N/A   Mostly Cloudy
10:55 AM 57.2 °F 48.2 °F 72% 30.15 in 10.0 mi NNW 5.8 mph - N/A   Mostly Cloudy
11:15 AM 60.8 °F 51.8 °F 72% 30.15 in 10.0 mi NW 5.8 mph - N/A   Mostly Cloudy
11:35 AM 59.0 °F 50.0 °F 72% 30.15 in 10.0 mi North 6.9 mph - N/A   Mostly Cloudy
11:55 AM 59.0 °F 48.2 °F 67% 30.15 in 10.0 mi NNW 6.9 mph - N/A   Mostly Cloudy
12:15 PM 60.8 °F 48.2 °F 63% 30.15 in 10.0 mi North 8.1 mph - N/A   Mostly Cloudy
12:35 PM 60.8 °F 48.2 °F 63% 30.15 in 10.0 mi NNW 6.9 mph - N/A   Overcast
12:55 PM 62.6 °F 48.2 °F 59% 30.14 in 10.0 mi North 6.9 mph - N/A   Overcast
1:15 PM 60.8 °F 48.2 °F 63% 30.15 in 10.0 mi Calm Calm - N/A   Overcast
1:35 PM 60.8 °F 46.4 °F 59% 30.15 in 10.0 mi Calm Calm - N/A   Overcast
1:55 PM 62.6 °F 46.4 °F 55% 30.15 in 10.0 mi Calm Calm - N/A   Mostly Cloudy
2:15 PM 62.6 °F 48.2 °F 59% 30.15 in 10.0 mi North 5.8 mph - N/A   Mostly Cloudy
2:35 PM 62.6 °F 48.2 °F 59% 30.14 in 10.0 mi Calm Calm - N/A   Mostly Cloudy
2:55 PM 62.6 °F 48.2 °F 59% 30.15 in 10.0 mi NNW 3.5 mph - N/A   Mostly Cloudy
3:35 PM 64.4 °F 48.2 °F 56% 30.14 in 10.0 mi North 4.6 mph - N/A   Mostly Cloudy
3:55 PM 64.4 °F 48.2 °F 56% 30.14 in 10.0 mi North 4.6 mph - N/A   Mostly Cloudy
4:15 PM 62.6 °F 50.0 °F 63% 30.15 in 10.0 mi NNW 3.5 mph - N/A   Overcast
4:35 PM 62.6 °F 50.0 °F 63% 30.15 in 10.0 mi Calm Calm - N/A   Mostly Cloudy
4:55 PM 64.4 °F 50.0 °F 59% 30.15 in 10.0 mi Calm Calm - N/A   Scattered Clouds
5:15 PM 62.6 °F 48.2 °F 59% 30.14 in 10.0 mi WNW 4.6 mph - N/A   Mostly Cloudy
5:35 PM 64.4 °F 50.0 °F 59% 30.14 in 10.0 mi Calm Calm - N/A   Scattered Clouds
5:55 PM 62.6 °F 50.0 °F 63% 30.14 in 10.0 mi Calm Calm - N/A   Clear
6:15 PM 62.6 °F 48.2 °F 59% 30.14 in 10.0 mi Calm Calm - N/A   Clear
6:35 PM 60.8 °F 51.8 °F 72% 30.14 in 10.0 mi Calm Calm - N/A   Clear
6:55 PM 60.8 °F 53.6 °F 77% 30.14 in 10.0 mi Calm Calm - N/A   Clear
7:15 PM 62.6 °F 53.6 °F 72% 30.14 in 10.0 mi Calm Calm - N/A   Clear
7:35 PM 60.8 °F 53.6 °F 77% 30.15 in 10.0 mi Calm Calm - N/A   Clear
7:55 PM 60.8 °F 53.6 °F 77% 30.15 in 10.0 mi Calm Calm - N/A   Clear
8:15 PM 57.2 °F 53.6 °F 88% 30.15 in 10.0 mi Calm Calm - N/A   Clear
8:35 PM 57.2 °F 53.6 °F 88% 30.16 in 10.0 mi Calm Calm - N/A   Clear
8:55 PM 55.4 °F 55.4 °F 100% 30.16 in 10.0 mi Calm Calm - N/A   Clear
9:15 PM 55.4 °F 55.4 °F 100% 30.17 in 10.0 mi Calm Calm - N/A   Clear
9:35 PM 55.4 °F 55.4 °F 100% 30.17 in 10.0 mi Calm Calm - N/A   Clear
9:55 PM 53.6 °F 53.6 °F 100% 30.18 in 10.0 mi Calm Calm - N/A   Clear
10:15 PM 53.6 °F 53.6 °F 100% 30.18 in 10.0 mi Calm Calm - N/A   Clear
10:35 PM 53.6 °F 53.6 °F 100% 30.19 in 10.0 mi Calm Calm - N/A   Clear
10:55 PM 53.6 °F 53.6 °F 100% 30.19 in 10.0 mi Calm Calm - N/A   Clear
11:15 PM 53.6 °F 53.6 °F 100% 30.19 in 9.0 mi Calm Calm - N/A   Clear
11:35 PM 51.8 °F 51.8 °F 100% 30.20 in 8.0 mi Calm Calm - N/A   Clear
11:55 PM 51.8 °F 51.8 °F 100% 30.20 in 7.0 mi Calm Calm - N/A   Clear